Regional Weather Roundup
Issued by NWS

Home | Current Version | Previous Version | Graphics & Text | Print | Product List | Glossary Off
Versions: 1 2 3 4 5 6 7 8 9 10 11 12 13 14 15 16 17 18 19 20 21 22 23 24 25 26 27 28 29 30 31 32 33 34 35 36 37 38 39 40 41 42 43 44 45 46 47 48 49 50

000
ASUS43 KMKX 080200
RWRWI

WISCONSIN REGIONAL WEATHER ROUNDUP
NATIONAL WEATHER SERVICE MILWAUKEE/SULLIVAN WI
900 PM CDT TUE JUL 07 2015

NOTE: "FAIR" INDICATES FEW OR NO CLOUDS BELOW 12,000 FEET WITH NO
SIGNIFICANT WEATHER AND/OR OBSTRUCTIONS TO VISIBILITY.

WIZ001-002-006>008-014>016-023>028-080300-
NORTHWEST WISCONSIN

CITY           SKY/WX    TMP DP  RH WIND       PRES   REMARKS
SUPERIOR ARPT  CLEAR     63  52  67 S5        30.08S
ASHLAND        CLEAR     57  54  89 SE3       30.10S
HAYWARD        CLEAR     60  52  74 CALM      30.11F
SIREN          CLEAR     62  51  67 CALM      30.11S
CUMBERLAND     CLEAR     63  48  59 CALM      30.12S
RICE LAKE      CLEAR     61  55  80 CALM      30.13S
CHETEK         NOT AVBL
LADYSMITH      CLEAR     60  49  66 NE3       30.13S
EAU CLAIRE     NOT AVBL
MENOMONIE      NOT AVBL
NEW RICHMOND   PTCLDY    64  49  57 N3        30.11F
OSCEOLA        PTCLDY    65  49  56 CALM      30.13F
$$

WIZ003>005-009-010-017-018-080300-
NORTH CENTRAL WISCONSIN

CITY           SKY/WX    TMP DP  RH WIND       PRES   REMARKS
MANITOWISH WTR CLEAR     54  50  87 CALM      30.13R
ARBOR VITAE    CLEAR     59  49  68 CALM      30.12S
WOODRUFF       CLEAR     59  49  68 CALM      30.12S
RHINELANDER    CLEAR     56  46  69 N3        30.12S
EAGLE RIVER    CLEAR     55  45  67 CALM      30.12R
LAND O LAKES   CLEAR     52  47  83 CALM      30.13S
PHILLIPS       CLEAR     56  47  72 CALM      30.12S
TOMAHAWK       CLEAR     56  49  79 CALM      30.12S
MEDFORD        CLEAR     59  49  71 N5        30.11S
MERRILL        CLEAR     58  51  78 CALM      30.12R
$$

WIZ029-030-035-036-043>047-080300-
CENTRAL WISCONSIN

CITY           SKY/WX    TMP DP  RH WIND       PRES   REMARKS
WAUSAU         CLEAR     63  46  54 N3        30.09R
MOSINEE        CLEAR     63  46  55 CALM      30.11S
MARSHFIELD     CLEAR     63  47  55 CALM      30.10R
STEVENS POINT  CLEAR     61  50  68 CALM      30.10S
WAUPACA        PTCLDY    62  54  73 CALM      30.10R
WAUTOMA        NOT AVBL
WISC RAPIDS    CLEAR     59  50  72 CALM      30.10S
CAMP DOUGLAS   NOT AVBL
$$

WIZ011>013-019>022-031-037>040-048>050-080300-
NORTHEAST WISCONSIN

CITY           SKY/WX    TMP DP  RH WIND       PRES   REMARKS
ANTIGO         CLEAR     58  51  77 CALM      30.11S
SHAWANO        CLEAR     62  51  65 CALM      30.09S
OCONTO         CLEAR     61  53  74 CALM      30.08S
STURGEON BAY   CLEAR     57  46  67 E3        30.11S
GREEN BAY      CLEAR     60  52  74 CALM      30.09R
MANITOWOC      NOT AVBL
APPLETON       PTCLDY    64  46  52 VRB5      30.09S
CLINTONVILLE   CLEAR     63  52  67 CALM      30.09S
OSHKOSH        MOCLDY    63  49  60 N7        30.08S
$$

WIZ032>034-041-042-053>061-080300-
SOUTHWEST WISCONSIN

CITY           SKY/WX    TMP DP  RH WIND       PRES   REMARKS
LA CROSSE      CLOUDY    64  52  64 CALM      30.08S
SPARTA         PTCLDY    61  52  71 CALM      30.10S
VIROQUA        CLOUDY    63  52  67 CALM      30.10S
BOSCOBEL       CLOUDY    62  56  80 CALM      30.10S
PRAIRIE DU CHI CLOUDY    64  51  63 CALM      30.09S
PLATTEVILLE    CLEAR     60  54  80 N5        30.10S
$$

WIZ056-057-062-063-064-067-068-080300-
SOUTH CENTRAL WISCONSIN

CITY           SKY/WX    TMP DP  RH WIND       PRES   REMARKS
REEDSBURG      CLOUDY    65  50  59 CALM      30.08F
BARABOO/DELLS  CLOUDY    65  49  56 CALM      30.08F
LONE ROCK      NOT AVBL
MINERAL POINT  MOCLDY    63  52  67 N3        30.10S
MADISON        MOCLDY    64  52  64 CALM      30.08S
MIDDLETON      CLOUDY    63  57  82 CALM      30.09S
WATERTOWN      CLOUDY    62  53  70 E8        30.08S
MONROE         CLEAR     61  52  72 N6        30.09R
JANESVILLE     PTCLDY    64  48  55 N7        30.08S
$$

WIZ051-052-058>065-066-070>072-080300-
SOUTHEAST WISCONSIN

CITY           SKY/WX    TMP DP  RH WIND       PRES   REMARKS
MILWAUKEE      PTCLDY    57  46  66 N8        30.09F
WAUKESHA       PTCLDY    55  46  71 NE6       30.11S
MILWAUKEE/TIMM CLEAR     57  45  62 N5        30.10F
RACINE         CLEAR     56  47  71 N5        30.10F
BURLINGTON     CLEAR     56  47  72 E7        30.09S
KENOSHA        CLEAR     56  48  74 N3        30.09S
FOND DU LAC    MOCLDY    60  52  74 SE7       30.10R
SHEBOYGAN      CLEAR     54  51  90 CALM      30.10S
WEST BEND      CLEAR     55  46  71 CALM      30.10S
JUNEAU         CLOUDY    61  52  71 E7        30.10R
$$

LSZ147-162-080300-
LAKE SUPERIOR

STATION/POSITION TIME  TEMP    WIND        PRES    WAVE
                       AIR SEA DIR/SP/G            HT/PER
                 (UTC) (F)     (DEG/KT/KT) (MB)    (FT/S)
W MID LAKE BUOY  0050   46 39  200/  8/  8 1019.1R   1
DEVILS ISLAND    0100   65     180/  6/  8 1018.8S
PORT WING        0140   67     180/  3/  4 1018.6F
SAXON HARBOR     0100   64        CALM     1019.0S
$$

LMZ867-665-643>646-080300-
LAKE MICHIGAN

STATION/POSITION TIME  TEMP    WIND        PRES    WAVE
                       AIR SEA DIR/SP/G            HT/PER
                 (UTC) (F)     (DEG/KT/KT) (MB)    (FT/S)
CHAMBERS ISLAND  0100   63      40/  9/ 12 1018.3R
N MID LAKE BUOY  0050   56 52  320/  4/  6 1018.4R   2/ 4
NORTHPORT PIER   0100   64      30/  6/ 25 1018.3R
SISTER BAY       2359   66      20/  8/ 15   N/A
ALGOMA LAKESHORE 0126             CALM       N/A
KEWAUNEE LAKESHO 0100   59        CALM     1018.2R
SHEBOYGAN LAKESH 0100   58      CALM  /  1 1019.4R
PORT WASHINGTON  0100   60      10/  3/  5 1020.0R
ATWATER BUOY     0100   59 59  350/  8/ 12 1020.3R
MILWAUKEE LAKESH 0100   60     360/  7/ 10   N/A
KENOSHA   LAKESH 0100   59      10/ 11/ 14 1018.6S
$$

TC  - TEMPERATURE IN CELSIUS
VSB - VISIBILITY IN STATUTE MILES
WCI - WIND CHILL INDEX
HX  - HEAT INDEX




USA.gov is the U.S. government's official web portal to all federal, state and local government web resources and services.